cover

 

Get it on iTunes StoreListen on Apple Music

Space Journey Records

#Trackname / Key / BPM / Publish dateArtists, Remixers / Label
1 150 bpm, 10A / B minor, 2018-10-12, Psy-Trance,  0  1
2 146 bpm, 5B / Eb major, 2018-10-06, Psy-Trance,  0  10
3 145 bpm, 2B / F# major, 2018-10-06, Psy-Trance,  0  10
4 145 bpm, 2A / Eb minor, 2018-10-06, Psy-Trance,  0  10
5 146 bpm, 9B / G major, 2018-10-06, Psy-Trance,  0  10
6 144 bpm, 1A / Ab minor, 2018-10-06, Psy-Trance,  0  10
7 147 bpm, 4B / Ab major, 2018-10-06, Psy-Trance,  0  10
8 142 bpm, 7B / F major, 2018-10-06, Psy-Trance,  0  10
9 146 bpm, 9B / G major, 2018-10-06, Psy-Trance,  0  10
10 144 bpm, 11A / F# minor, 2018-10-06, Psy-Trance,  0  10
11 144 bpm, 7B / F major, 2018-10-06, Psy-Trance,  0  10
12 140 bpm, 7A / D minor, 2018-08-31, Psy-Trance,  1  1
13 170 bpm, 7B / F major, 2018-06-25, Psy-Trance,  0  2
14 170 bpm, 7B / F major, 2018-06-25, Psy-Trance,  0  2
15 150 bpm, 8B / C major, 2018-06-18, Psy-Trance,  0  2
16 150 bpm, 3A / Bb minor, 2018-06-18, Psy-Trance,  0  2
17 150 bpm, 11A / F# minor, 2018-06-18, Psy-Trance,  0  1
18 138 bpm, 9A / E minor, 2018-03-12, Psy-Trance,  0  2
19 138 bpm, 7A / D minor, 2018-03-12, Psy-Trance,  0  2
20 140 bpm, 9B / G major, 2017-12-30, Psy-Trance,  0  1
21 164 bpm, 8A / A minor, 2017-12-15, Psy-Trance,  0  1
22 138 bpm, 10B / D major, 2017-12-01, Psy-Trance,  2  1
23 148 bpm, 9A / E minor, 2017-11-06, Psy-Trance,  0  2
24 150 bpm, 11B / A major, 2017-11-06, Psy-Trance,  0  2
25 150 bpm, 8A / A minor, 2017-10-16, Psy-Trance,  0  1
26 143 bpm, 6B / Bb major, 2017-10-02, Psy-Trance,  0  2
27 142 bpm, 7B / F major, 2017-10-02, Psy-Trance,  0  2
28 138 bpm, 12B / E major, 2017-09-18, Psy-Trance,  1  1
29 138 bpm, 7B / F major, 2016-10-24, Psy-Trance,  1  1
30 140 bpm, 11B / A major, 2016-09-12, Psy-Trance,  0  1
31 148 bpm, 7B / F major, 2016-09-05, Psy-Trance,  1  1
32 142 bpm, 10B / D major, 2016-08-29, Psy-Trance,  0  1
33 140 bpm, 8A / A minor, 2016-06-27, Psy-Trance,  0  1
34 140 bpm, 11B / A major, 2016-05-30, Psy-Trance,  0  1
35 142 bpm, 8A / A minor, 2016-03-28, Psy-Trance,  0  1
36 150 bpm, 11A / F# minor, 2016-03-21, Psy-Trance,  0  1
37 147 bpm, 6B / Bb major, 2016-02-13, Psy-Trance,  0  3
38 140 bpm, 8A / A minor, 2016-02-13, Psy-Trance,  0  3
39 138 bpm, 6B / Bb major, 2016-02-13, Psy-Trance,  0  3
40 142 bpm, 11B / A major, 2016-01-30, Psy-Trance,  0  2
41 140 bpm, 7A / D minor, 2016-01-30, Psy-Trance,  0  2
42 150 bpm, 11A / F# minor, 2015-12-07, Psy-Trance,  0  2
43 150 bpm, 3A / Bb minor, 2015-12-07, Psy-Trance,  0  2
44 140 bpm, 6A / G minor, 2015-11-30, Psy-Trance,  0  2
45 140 bpm, 7B / F major, 2015-11-30, Psy-Trance,  0  2
46 149 bpm, 7B / F major, 2015-09-08, Psy-Trance,  0  2
47 99 bpm, 9B / G major, 2015-09-08, Psy-Trance,  0  2
48 140 bpm, 7B / F major, 2015-08-25, Trance,  0  2
49 140 bpm, 7B / F major, 2015-08-25, Trance,  0  2
×

Sign in

Sign in to access your personalized pages, follow artists and labels you love, and create playlists fromyour favorite tracks.

Please wait...